• In Deutschland
  • Länderverzeichnis
  • Für 7 Tage
  • Wassertemperatur
  • Satellitenkarten
  • Wetterkarte
  • Widgets
  • user-avatar
    Anmelden

    Stündliche Wetter Uige

    Heute, 26 April, Mittwoch

    Zeit Temperatur Niederschläge Wind Luftdruck Luftfeuchtigkeit
    00:00 +21°C° 0 mm 1 m/S 690 mmHg 59%
    01:00 +19°C° 0 mm 0 m/S 691 mmHg 63%
    02:00 +19°C° 0 mm 0 m/S 691 mmHg 62%
    03:00 +20°C° 0 mm 0 m/S 691 mmHg 61%
    04:00 +20°C° 0 mm 0 m/S 691 mmHg 59%
    05:00 +20°C° 0 mm 0 m/S 691 mmHg 61%
    06:00 +22°C° 0 mm 1 m/S 691 mmHg 62%
    07:00 +22°C° 0 mm 0 m/S 692 mmHg 64%
    08:00 +25°C° 0 mm 1 m/S 692 mmHg 59%
    09:00 +27°C° 0 mm 1 m/S 693 mmHg 53%
    10:00 +29°C° 0 mm 1 m/S 693 mmHg 48%
    11:00 +30°C° 0 mm 1 m/S 693 mmHg 46%
    12:00 +31°C° 0 mm 1 m/S 693 mmHg 44%
    13:00 +32°C° 0 mm 2 m/S 693 mmHg 42%
    14:00 +31°C° 0,1 mm 2 m/S 692 mmHg 48%
    15:00 +30°C° 0,1 mm 2 m/S 691 mmHg 53%
    16:00 +29°C° 0,1 mm 2 m/S 691 mmHg 59%
    17:00 +27°C° 0 mm 2 m/S 691 mmHg 67%
    18:00 +25°C° 0 mm 1 m/S 691 mmHg 76%
    19:00 +24°C° 0 mm 1 m/S 691 mmHg 84%
    20:00 +23°C° 0 mm 1 m/S 691 mmHg 85%
    21:00 +23°C° 0 mm 1 m/S 691 mmHg 86%
    22:00 +23°C° 0 mm 1 m/S 692 mmHg 86%
    23:00 +22°C° 0 mm 1 m/S 691 mmHg 87%

    Morgen, 27 April, Donnerstag

    Zeit Temperatur Niederschläge Wind Luftdruck Luftfeuchtigkeit
    00:00 +22°C° 0 mm 1 m/S 691 mmHg 87%
    01:00 +21°C° 0 mm 1 m/S 691 mmHg 88%
    02:00 +21°C° 0 mm 1 m/S 691 mmHg 88%
    03:00 +21°C° 0 mm 1 m/S 690 mmHg 89%
    04:00 +20°C° 0 mm 1 m/S 690 mmHg 89%
    05:00 +21°C° 0 mm 1 m/S 691 mmHg 87%
    06:00 +22°C° 0 mm 1 m/S 691 mmHg 85%
    07:00 +22°C° 0 mm 1 m/S 691 mmHg 82%
    08:00 +25°C° 0 mm 1 m/S 692 mmHg 74%
    09:00 +27°C° 0 mm 1 m/S 693 mmHg 66%
    10:00 +30°C° 0 mm 1 m/S 693 mmHg 57%
    11:00 +30°C° 0,7 mm 2 m/S 693 mmHg 60%
    12:00 +30°C° 0,7 mm 2 m/S 692 mmHg 62%
    13:00 +31°C° 0,7 mm 2 m/S 692 mmHg 65%
    14:00 +30°C° 1,5 mm 1 m/S 691 mmHg 68%
    15:00 +29°C° 1,5 mm 1 m/S 691 mmHg 72%
    16:00 +29°C° 1,5 mm 1 m/S 690 mmHg 75%
    17:00 +27°C° 1,4 mm 1 m/S 690 mmHg 81%
    18:00 +25°C° 1,4 mm 1 m/S 690 mmHg 86%
    19:00 +22°C° 1,4 mm 0 m/S 691 mmHg 92%
    20:00 +21°C° 1,8 mm 0 m/S 691 mmHg 93%
    21:00 +21°C° 1,8 mm 0 m/S 691 mmHg 94%
    22:00 +20°C° 1,8 mm 0 m/S 692 mmHg 95%
    23:00 +20°C° 1,1 mm 0 m/S 692 mmHg 95%

    übermorgen, 28 April, Freitag

    Zeit Temperatur Niederschläge Wind Luftdruck Luftfeuchtigkeit
    00:00 +20°C° 1,1 mm 0 m/S 692 mmHg 96%
    01:00 +20°C° 1,1 mm 0 m/S 692 mmHg 96%
    02:00 +22°C° 0,4 mm 1 m/S 691 mmHg 96%
    03:00 +22°C° 0,4 mm 1 m/S 691 mmHg 97%
    04:00 +21°C° 0,4 mm 1 m/S 691 mmHg 97%
    05:00 +22°C° 0 mm 1 m/S 691 mmHg 95%
    06:00 +22°C° 0 mm 1 m/S 692 mmHg 94%
    07:00 +23°C° 0 mm 1 m/S 692 mmHg 93%
    08:00 +24°C° 0,1 mm 1 m/S 693 mmHg 86%
    09:00 +26°C° 0,1 mm 1 m/S 693 mmHg 80%
    10:00 +28°C° 0,1 mm 1 m/S 694 mmHg 73%
    11:00 +29°C° 0,4 mm 1 m/S 693 mmHg 69%
    12:00 +30°C° 0,4 mm 2 m/S 693 mmHg 65%
    13:00 +30°C° 0,4 mm 2 m/S 692 mmHg 60%
    14:00 +30°C° 1,2 mm 1 m/S 691 mmHg 65%
    15:00 +29°C° 1,2 mm 1 m/S 691 mmHg 70%
    16:00 +28°C° 1,2 mm 1 m/S 690 mmHg 75%
    17:00 +27°C° 1,3 mm 1 m/S 691 mmHg 81%
    18:00 +25°C° 1,3 mm 1 m/S 691 mmHg 88%
    19:00 +23°C° 1,3 mm 1 m/S 691 mmHg 94%
    20:00 +23°C° 0,1 mm 1 m/S 691 mmHg 94%
    21:00 +23°C° 0,1 mm 1 m/S 692 mmHg 94%
    22:00 +22°C° 0,1 mm 1 m/S 692 mmHg 94%
    23:00 +22°C° 0,5 mm 1 m/S 692 mmHg 94%

    29 April, Samstag

    Zeit Temperatur Niederschläge Wind Luftdruck Luftfeuchtigkeit
    00:00 +22°C° 0,5 mm 1 m/S 692 mmHg 95%
    01:00 +22°C° 0,5 mm 1 m/S 692 mmHg 96%
    02:00 +21°C° 0,9 mm 1 m/S 691 mmHg 96%
    03:00 +21°C° 0,9 mm 1 m/S 691 mmHg 96%
    04:00 +21°C° 0,9 mm 1 m/S 691 mmHg 96%
    05:00 +22°C° 0,2 mm 1 m/S 691 mmHg 96%
    06:00 +22°C° 0,2 mm 1 m/S 692 mmHg 95%
    07:00 +22°C° 0,2 mm 1 m/S 692 mmHg 94%
    08:00 +25°C° 0 mm 2 m/S 693 mmHg 84%
    09:00 +27°C° 0 mm 2 m/S 694 mmHg 73%
    10:00 +29°C° 0 mm 3 m/S 694 mmHg 63%
    11:00 +30°C° 0,1 mm 3 m/S 693 mmHg 59%
    12:00 +31°C° 0,1 mm 3 m/S 693 mmHg 56%
    13:00 +33°C° 0,1 mm 3 m/S 692 mmHg 53%
    14:00 +31°C° 0,1 mm 3 m/S 691 mmHg 56%
    15:00 +31°C° 0,1 mm 2 m/S 691 mmHg 59%
    16:00 +30°C° 0,1 mm 2 m/S 690 mmHg 63%
    17:00 +28°C° 0,1 mm 2 m/S 691 mmHg 70%
    18:00 +26°C° 0,1 mm 2 m/S 691 mmHg 77%
    19:00 +24°C° 0,1 mm 1 m/S 691 mmHg 83%
    20:00 +24°C° 0,1 mm 1 m/S 691 mmHg 85%
    21:00 +23°C° 0,1 mm 1 m/S 691 mmHg 87%
    22:00 +23°C° 0,1 mm 1 m/S 692 mmHg 89%
    23:00 +22°C° 0 mm 1 m/S 691 mmHg 90%

    30 April, Sonntag

    Zeit Temperatur Niederschläge Wind Luftdruck Luftfeuchtigkeit
    00:00 +22°C° 0 mm 1 m/S 691 mmHg 91%
    01:00 +21°C° 0 mm 1 m/S 691 mmHg 92%
    02:00 +21°C° 0 mm 1 m/S 691 mmHg 92%
    03:00 +21°C° 0 mm 1 m/S 690 mmHg 92%
    04:00 +21°C° 0 mm 1 m/S 690 mmHg 92%
    05:00 +21°C° 0 mm 1 m/S 691 mmHg 91%
    06:00 +22°C° 0 mm 1 m/S 691 mmHg 90%
    07:00 +22°C° 0 mm 1 m/S 692 mmHg 88%
    08:00 +25°C° 0 mm 2 m/S 693 mmHg 78%
    09:00 +27°C° 0 mm 2 m/S 693 mmHg 68%
    10:00 +29°C° 0 mm 3 m/S 694 mmHg 59%
    11:00 +30°C° 0 mm 3 m/S 693 mmHg 55%
    12:00 +31°C° 0 mm 3 m/S 692 mmHg 51%
    13:00 +33°C° 0 mm 3 m/S 691 mmHg 48%
    14:00 +33°C° 0,1 mm 3 m/S 691 mmHg 50%
    15:00 +31°C° 0,1 mm 2 m/S 690 mmHg 53%
    16:00 +31°C° 0,1 mm 2 m/S 690 mmHg 55%
    17:00 +29°C° 0 mm 2 m/S 690 mmHg 61%
    18:00 +26°C° 0 mm 2 m/S 690 mmHg 68%
    19:00 +24°C° 0 mm 2 m/S 691 mmHg 74%
    20:00 +24°C° 0 mm 2 m/S 691 mmHg 75%
    21:00 +23°C° 0 mm 2 m/S 691 mmHg 77%
    22:00 +23°C° 0 mm 2 m/S 691 mmHg 78%
    23:00 +21°C° 0 mm 2 m/S 691 mmHg 78%

    1 Mai, Montag

    Zeit Temperatur Niederschläge Wind Luftdruck Luftfeuchtigkeit
    00:00 +21°C° 0 mm 2 m/S 691 mmHg 79%
    01:00 +22°C° 0 mm 1 m/S 691 mmHg 79%
    02:00 +21°C° 0 mm 1 m/S 691 mmHg 79%
    03:00 +21°C° 0 mm 1 m/S 690 mmHg 79%
    04:00 +21°C° 0 mm 1 m/S 690 mmHg 79%
    05:00 +20°C° 0 mm 2 m/S 691 mmHg 79%
    06:00 +20°C° 0 mm 2 m/S 691 mmHg 79%
    07:00 +21°C° 0 mm 2 m/S 692 mmHg 79%
    08:00 +24°C° 0 mm 2 m/S 692 mmHg 70%
    09:00 +27°C° 0 mm 3 m/S 693 mmHg 62%
    10:00 +29°C° 0 mm 3 m/S 693 mmHg 54%
    11:00 +30°C° 0 mm 3 m/S 692 mmHg 51%
    12:00 +31°C° 0 mm 3 m/S 692 mmHg 47%
    13:00 +32°C° 0 mm 2 m/S 691 mmHg 44%
    14:00 +31°C° 0 mm 2 m/S 691 mmHg 46%
    15:00 +31°C° 0 mm 2 m/S 690 mmHg 48%
    16:00 +31°C° 0 mm 2 m/S 690 mmHg 49%
    17:00 +29°C° 0 mm 2 m/S 690 mmHg 56%
    18:00 +27°C° 0 mm 2 m/S 690 mmHg 62%
    19:00 +24°C° 0 mm 2 m/S 690 mmHg 69%
    20:00 +24°C° 0 mm 2 m/S 691 mmHg 70%
    21:00 +23°C° 0 mm 2 m/S 691 mmHg 71%
    22:00 +23°C° 0 mm 2 m/S 691 mmHg 72%
    23:00 +21°C° 0 mm 2 m/S 691 mmHg 73%
    Mehr zeigen